This is the latest recevied weather packets stored in our database for station/object KD9JJA. If no packets are shown the sender has not sent any weather packets the latest 10 day(s).
| Time | Temp. | Humidity | Pressure | Rain* | Wind** | Luminosity | Snow |
|---|---|---|---|---|---|---|---|
| 1777985489 | 14.44° C | 99% | 1009.5 hPa | 0 mm | - | 56 W/m² | - |
| 1777985186 | 14.44° C | 99% | 1009.6 hPa | 0 mm | - | 56 W/m² | - |
| 1777984882 | 13.89° C | 99% | 1009.6 hPa | 0 mm | - | 52 W/m² | - |
| 1777984577 | 13.89° C | 99% | 1009.3 hPa | 0 mm | - | 46 W/m² | - |
| 1777984269 | 13.89° C | 99% | 1009.4 hPa | 0 mm | - | 44 W/m² | - |
| 1777983966 | 13.89° C | 99% | 1009.4 hPa | 0 mm | - | 44 W/m² | - |
| 1777983663 | 13.89° C | 99% | 1009.3 hPa | 0 mm | - | 41 W/m² | - |
| 1777983359 | 13.89° C | 99% | 1009.3 hPa | 0 mm | - | 39 W/m² | - |
| 1777983056 | 13.89° C | 99% | 1009.5 hPa | 0 mm | - | 35 W/m² | - |
| 1777982752 | 13.89° C | 99% | 1009.4 hPa | 0 mm | - | 29 W/m² | - |
| 1777982448 | 13.89° C | 99% | 1009.4 hPa | 0 mm | - | 21 W/m² | - |
| 1777982142 | 13.89° C | 99% | 1009.4 hPa | 0 mm | - | 16 W/m² | - |
| 1777981840 | 13.89° C | 99% | 1009.1 hPa | 0 mm | - | 20 W/m² | - |
| 1777981537 | 13.89° C | 99% | 1009 hPa | 0 mm | - | 23 W/m² | - |
| 1777981233 | 13.89° C | 99% | 1009 hPa | 0 mm | - | 21 W/m² | - |
| 1777980924 | 13.89° C | 99% | 1008.9 hPa | 0 mm | - | 18 W/m² | - |
| 1777980621 | 13.89° C | 99% | 1009.1 hPa | 0 mm | - | 16 W/m² | - |
| 1777980317 | 13.89° C | 99% | 1009 hPa | 0 mm | - | 12 W/m² | - |
| 1777980015 | 13.89° C | 99% | 1009 hPa | 0 mm | - | 10 W/m² | - |
| 1777979715 | 13.33° C | 99% | 1008.6 hPa | 0 mm | - | 8 W/m² | - |
| 1777979411 | 13.89° C | 99% | 1008.2 hPa | 0 mm | - | 5 W/m² | - |
| 1777979108 | 13.89° C | 99% | 1008.3 hPa | 0 mm | - | 1 W/m² | - |
| 1777978804 | 13.89° C | 99% | 1008.5 hPa | 0 mm | - | 0 W/m² | - |
| 1777978501 | 13.89° C | 99% | 1008.7 hPa | 0 mm | - | 0 W/m² | - |
| 1777978197 | 13.89° C | 99% | 1008.8 hPa | 0 mm | - | 0 W/m² | - |
* Rain latest hour (hover to see other rain measurements)
** Current wind speed in m/s (hover to see current wind gust speed)